Startseite
Über Mich
AHP4
Galerie
Sehschlangen
Tourenbuch
Bookmarks
Elektronik
Bewertung
Geschichten
[Tagesmessung] [Jahreswerte] [Information]

Messwerte vom 18.05.2022

Die letzten Messwerte von 23:58:49 Uhr:
KategorieMesswert
Temperatur [°C]17
Luftdruck [mBar]1005
Sonneneinstrahlung0
Wind [km/h]4 aus Südost
Niederschlag [l/m²]0
rel.Luftfeucht.78.2%
CO2 [ppm]720

Diagramme
Messwerte vom 18.05.2022
Tagesaggregation
KategorieMinimumMaximumSchnittSumme
Temperatur [°C]133321.5625
Luftdruck [mBar]100510091006.3354
Sonneneinstrahlung247138.6021
Wind [km/h]20
rF [%]35.496.670.65
Niederschlag [l/m²]0
CO2 [ppm]403808618.8
Einordnung alsVegetationstag
Sommertag
Heißer Tag

Messungen an benachbarten Tagen: Zur Jahresaggregation 2022
Tabelle aller Messwerte
UhrzeitTemperatur [°C]Luftdruck [mBar]SonneWind [km/h]RichtungRegen [l/m²]rF [%]CO2 [ppm]
00:01:49 13 1006 0 0 NO 0 96.5 735
00:04:47 13 1006 0 0 NO 0 96.5 735
00:07:48 13 1006 0 0 NO 0 96.3 730
00:10:48 13 1006 0 0 NO 0 96.6 744
00:13:49 14 1006 0 0 NO 0 96.6 745
00:16:50 14 1006 0 0 NW 0 96.6 755
00:19:47 14 1006 0 0 SO 0 96.6 752
00:22:48 14 1006 0 0 SO 0 96.6 755
00:25:47 14 1006 0 0 SO 0 96.6 765
00:28:46 14 1006 0 0 O 0 96.6 767
00:31:46 14 1006 0 0 O 0 96.6 769
00:34:46 14 1006 0 0 O 0 96.6 761
00:37:46 14 1006 0 0 O 0 96.6 758
00:40:49 14 1006 0 0 NO 0 96.6 773
00:43:46 14 1006 0 0 N 0 96.6 767
00:46:47 14 1006 0 0 N 0 96.6 770
00:49:48 14 1006 0 0 NO 0 96.6 770
00:52:49 14 1006 0 0 NO 0 96.6 784
00:55:47 14 1006 0 2 NO 0 96.6 785
00:58:46 14 1006 0 1 O 0 96.6 779
01:01:47 14 1006 0 1 NO 0 96.6 773
01:04:46 14 1006 0 0 NO 0 96.6 770
01:07:46 14 1006 0 0 O 0 96.6 775
01:10:48 15 1006 0 0 NO 0 96.6 778
01:13:49 15 1006 0 2 NW 0 96.6 776
01:16:46 15 1006 0 3 NO 0 96.6 773
01:19:46 15 1006 0 1 NO 0 96.6 779
01:22:49 15 1006 0 0 NO 0 96.6 784
01:25:47 15 1006 0 0 NO 0 96.6 782
01:28:46 15 1006 0 0 O 0 96.6 785
01:31:47 15 1006 0 0 O 0 96.6 788
01:34:48 14 1006 0 0 O 0 96.6 787
01:37:47 14 1006 0 0 SO 0 96.6 780
01:40:47 14 1006 0 0 SO 0 96.6 781
01:43:47 14 1006 0 0 SO 0 96.6 781
01:46:46 14 1006 0 0 O 0 96.6 779
01:49:48 14 1006 0 0 SO 0 96.6 772
01:52:47 14 1006 0 0 NW 0 96.6 773
01:55:48 14 1006 0 1 S 0 96.6 782
01:58:44 14 1006 0 0 O 0 96.6 795
02:01:46 14 1006 0 0 O 0 96.6 802
02:04:51 14 1006 0 0 SO 0 96.6 803
02:07:46 14 1006 0 0 O 0 96.6 808
02:10:46 14 1006 0 0 O 0 96.6 805
02:13:45 14 1006 0 0 0 96.6 805
02:16:49 14 1006 0 0 NW 0 96.6 805
02:19:50 14 1006 0 0 NW 0 96.6 800
02:22:49 14 1006 0 0 NW 0 96.6 799
02:25:49 14 1006 0 2 SO 0 96.6 796
02:28:47 14 1006 0 0 N 0 96.6 800
02:31:50 14 1006 0 0 NO 0 96.6 804
02:34:50 14 1006 0 0 NO 0 96.6 808
02:37:49 14 1006 0 0 NO 0 96.6 808
02:40:47 14 1006 0 0 O 0 96.6 808
02:43:47 14 1006 0 0 NW 0 96.6 791
02:46:47 14 1006 0 0 NW 0 96.6 796
02:49:47 14 1006 0 0 NW 0 96.6 797
02:52:50 14 1006 0 0 NW 0 96.6 797
02:55:47 14 1006 0 0 NW 0 96.6 793
02:58:48 14 1006 0 0 NW 0 96.6 790
03:01:47 14 1006 0 0 SO 0 96.6 782
03:04:48 14 1006 0 2 NW 0 96.6 782
03:07:48 14 1006 0 0 N 0 96.6 778
03:10:47 14 1006 0 0 NW 0 96.6 779
03:13:47 14 1006 0 0 NW 0 96.6 775
03:16:50 14 1006 0 0 NW 0 96.6 782
03:19:46 14 1006 0 0 W 0 96.6 774
03:22:45 14 1006 0 0 O 0 96.6 773
03:25:48 14 1006 0 0 SO 0 96.6 778
03:28:46 14 1006 0 0 W 0 96.6 779
03:31:46 14 1006 0 0 O 0 96.6 781
03:34:45 14 1006 0 0 0 96.6 785
03:37:46 14 1007 0 0 O 0 96.6 779
03:40:49 14 1007 0 0 NO 0 96.6 771
03:43:45 14 1006 0 0 O 0 96.6 765
03:46:49 14 1006 0 0 NO 0 96.6 766
03:49:48 14 1006 0 0 NW 0 96.6 768
03:52:46 14 1006 0 0 NW 0 96.6 773
03:55:47 14 1006 0 0 W 0 96.6 773
03:58:48 14 1006 0 0 NW 0 96.6 768
04:01:49 14 1006 0 0 NO 0 96.6 764
04:04:49 14 1006 0 0 NW 0 96.6 761
04:07:45 14 1006 0 0 0 96.6 761
04:10:45 14 1007 0 0 0 96.6 761
04:13:46 14 1006 0 0 NO 0 96.6 767
04:16:49 14 1006 0 0 NO 0 96.6 769
04:19:47 14 1006 0 0 NO 0 96.6 767
04:22:46 14 1006 0 0 NO 0 96.6 767
04:25:47 14 1006 0 0 NO 0 96.6 764
04:28:48 14 1006 0 0 NO 0 96.6 761
04:31:48 14 1006 0 0 NO 0 96.6 753
04:34:47 14 1006 0 0 NO 0 96.6 758
04:37:48 14 1006 0 0 NO 0 96.6 750
04:40:47 14 1006 0 0 NO 0 96.6 753
04:43:52 13 1006 0 0 NO 0 96.6 752
04:46:45 13 1006 0 0 NO 0 96.6 755
04:49:46 13 1006 3 0 NO 0 96.6 759
04:52:49 13 1006 4 0 NO 0 96.6 758
04:55:47 13 1006 6 0 NO 0 96.6 752
04:58:45 13 1007 9 0 NO 0 96.6 752
05:01:49 13 1006 13 0 NO 0 96.6 759
05:04:50 13 1006 18 0 NO 0 96.6 752
05:07:48 13 1007 25 0 NO 0 96.6 752
05:10:48 13 1006 32 0 NO 0 96.6 755
05:13:49 13 1006 40 0 NO 0 96.6 758
05:16:48 13 1006 48 0 NO 0 96.6 758
05:19:47 13 1006 56 0 NO 0 96.6 753
05:22:48 13 1006 63 0 NO 0 96.6 755
05:25:48 13 1006 70 0 NO 0 96.6 758
05:28:47 13 1006 76 0 NO 0 96.6 761
05:31:49 13 1006 81 0 NO 0 96.6 764
05:34:48 13 1007 86 0 NO 0 96.6 764
05:37:49 13 1006 90 0 NO 0 96.6 762
05:40:46 13 1006 95 0 NO 0 96.6 764
05:43:49 13 1006 99 0 NO 0 96.6 761
05:46:46 13 1006 103 0 NO 0 96.6 761
05:49:48 13 1006 107 0 NO 0 96.6 758
05:52:47 13 1006 111 0 NO 0 96.6 752
05:55:49 13 1006 116 0 NO 0 96.6 755
05:58:49 13 1006 121 0 NO 0 96.6 749
06:01:48 13 1007 126 0 NO 0 96.6 755
06:04:49 13 1007 132 0 NO 0 96.6 764
06:07:48 13 1006 137 0 NO 0 96.6 770
06:10:51 13 1007 140 0 NO 0 96.6 764
06:13:47 13 1008 142 0 NO 0 96.6 767
06:16:48 13 1006 144 0 NO 0 96.6 764
06:19:50 13 1007 148 0 NO 0 96.6 767
06:22:48 13 1007 155 0 NO 0 96.6 764
06:25:48 13 1007 160 0 NO 0 96.6 764
06:28:48 13 1006 164 0 NO 0 96.6 767
06:31:50 13 1007 169 0 NO 0 96.6 761
06:34:49 13 1007 173 0 NO 0 96.6 770
06:37:50 13 1007 174 0 NO 0 96.6 773
06:40:49 13 1007 176 0 NO 0 96.6 776
06:43:53 14 1006 178 0 NO 0 96.6 775
06:46:48 14 1006 179 2 NO 0 96.6 776
06:49:49 14 1007 177 0 SO 0 96.6 773
06:52:47 14 1006 179 0 O 0 96.6 776
06:55:49 14 1006 184 0 O 0 96.6 788
06:58:47 14 1007 193 0 O 0 96.6 782
07:01:48 15 1007 199 1 N 0 96.6 778
07:04:49 15 1006 202 0 O 0 96.6 774
07:07:48 16 1007 206 0 O 0 96.6 770
07:10:49 16 1006 208 0 NO 0 96.5 772
07:13:48 16 1006 208 0 N 0 96.1 770
07:16:50 16 1007 208 0 O 0 96.2 768
07:19:48 16 1007 206 2 O 0 96.4 770
07:22:49 16 1007 205 0 O 0 95.6 738
07:25:48 16 1007 205 0 O 0 94.7 735
07:28:51 16 1006 207 0 NW 0 94.6 747
07:31:47 16 1007 207 0 S 0 94.8 769
07:34:48 16 1008 207 0 S 0 95 775
07:37:49 16 1007 206 4 S 0 95.3 782
07:40:49 16 1006 205 0 S 0 95.4 782
07:43:47 17 1007 205 4 SO 0 95.7 794
07:46:48 18 1007 206 1 NO 0 94.4 791
07:49:31 16 1006 206 9 S 0 87.4 776
07:52:50 18 1008 207 5 SW 0 89.9 767
07:55:52 19 1006 206 3 S 0 88.9 774
07:58:49 19 1007 209 9 S 0 88.8 782
08:01:50 19 1007 209 10 NO 0 88.1 785
08:04:51 19 1008 210 4 SO 0 87.6 780
08:07:48 19 1007 210 6 SO 0 85.9 775
08:10:49 19 1007 211 4 SO 0 85.4 770
08:13:47 20 1007 210 6 N 0 84.9 768
08:16:52 20 1007 207 5 O 0 84 772
08:19:47 20 1007 204 3 S 0 84 765
08:22:47 20 1007 204 5 N 0 83.7 753
08:25:48 20 1007 201 5 S 0 83.9 752
08:28:47 20 1007 201 4 S 0 83.6 752
08:31:49 20 1008 199 5 S 0 83.2 738
08:34:48 20 1007 199 9 SO 0 83.1 736
08:37:48 19 1008 201 1 SO 0 82.8 730
08:40:50 20 1008 202 3 NO 0 82.7 729
08:43:48 20 1007 204 7 SO 0 82.7 726
08:46:49 20 1007 206 4 S 0 82.3 724
08:49:48 20 1007 208 8 S 0 81.8 720
08:52:47 20 1008 210 4 S 0 81.4 714
08:55:48 20 1007 213 8 O 0 80 711
08:58:49 21 1007 212 6 S 0 79.9 705
09:01:49 21 1007 210 4 SO 0 77.7 712
09:04:50 21 1006 207 5 SO 0 76.9 706
09:07:50 21 1007 207 5 S 0 76.2 697
09:10:51 21 1007 207 9 SO 0 75.6 697
09:13:48 21 1008 207 5 SW 0 75.4 692
09:16:50 21 1007 208 9 SO 0 75.5 682
09:19:53 21 1007 208 5 SW 0 75.6 677
09:22:47 21 1007 207 11 O 0 75.4 671
09:25:48 21 1007 205 7 S 0 74.5 668
09:28:51 21 1007 204 5 SW 0 73.6 667
09:31:49 21 1008 202 8 SO 0 73.5 668
09:34:52 21 1007 201 8 SO 0 74.3 665
09:37:50 21 1008 203 9 S 0 74.1 656
09:40:48 21 1008 206 5 O 0 74.1 659
09:43:48 21 1007 207 3 S 0 74.3 656
09:46:48 21 1007 210 8 S 0 74.1 656
09:49:49 21 1007 209 7 SO 0 74 640
09:52:47 21 1008 209 8 O 0 74 639
09:55:47 21 1008 212 10 S 0 73.4 634
09:58:47 21 1007 217 2 S 0 72.1 625
10:01:48 21 1007 219 5 SO 0 72.7 634
10:04:49 22 1009 220 4 SO 0 71.7 627
10:07:48 22 1007 221 9 SW 0 71.1 626
10:10:49 22 1008 221 4 O 0 68.2 625
10:13:47 22 1008 221 11 S 0 68 618
10:16:47 22 1008 220 9 O 0 67.3 621
10:19:50 23 1008 221 8 S 0 66.6 620
10:22:49 23 1007 223 5 O 0 66.4 616
10:25:49 23 1008 224 3 N 0 66.2 614
10:28:47 23 1007 223 3 S 0 66.4 603
10:31:48 23 1008 222 9 S 0 67 600
10:34:48 23 1008 222 8 S 0 65.4 598
10:37:48 23 1007 222 4 SO 0 64.2 603
10:40:49 24 1007 222 8 SO 0 64.2 603
10:43:48 24 1008 223 5 O 0 64.3 600
10:46:48 24 1007 224 1 NO 0 63.6 594
10:49:47 23 1008 224 10 O 0 64.5 597
10:52:45 23 1007 224 15 O 0 64.1 585
10:55:47 23 1008 224 2 O 0 64.4 579
10:58:49 23 1007 222 9 S 0 64.5 579
11:01:49 23 1007 220 4 SO 0 65.3 579
11:04:49 23 1008 222 3 NO 0 65.6 576
11:07:49 23 1008 223 19 S 0 65.7 577
11:10:49 23 1008 222 6 S 0 65.4 580
11:13:47 23 1007 220 7 SO 0 65.7 577
11:16:51 23 1008 220 5 SO 0 65.6 571
11:19:47 23 1008 220 6 S 0 66.2 571
11:22:47 23 1008 218 10 S 0 65.9 571
11:25:49 24 1008 219 4 W 0 65.2 564
11:28:49 24 1008 218 2 O 0 64.6 559
11:31:49 24 1007 217 4 S 0 65.2 557
11:34:47 24 1007 214 8 O 0 63.5 554
11:37:47 24 1007 210 3 O 0 63.3 550
11:40:46 24 1007 210 4 O 0 63.9 551
11:43:49 24 1007 213 8 SW 0 64.8 556
11:46:49 24 1007 212 17 SO 0 63.9 548
11:49:48 24 1007 211 8 O 0 63.6 545
11:52:47 25 1007 211 3 SO 0 63.2 548
11:55:49 25 1007 213 10 SO 0 62.5 553
11:58:47 25 1007 214 6 SO 0 61.9 545
12:01:48 25 1007 213 9 O 0 60.8 539
12:04:48 26 1006 214 1 O 0 58.3 524
12:07:48 26 1006 217 14 S 0 58.2 530
12:10:49 27 1007 219 12 S 0 57.8 527
12:13:49 27 1007 220 10 NO 0 57.1 534
12:16:50 27 1007 223 9 SO 0 55.7 538
12:19:49 28 1007 226 9 0 54.2 539
12:22:48 28 1007 227 4 SO 0 53.3 527
12:25:50 28 1007 228 6 S 0 50.9 533
12:28:51 28 1007 228 11 S 0 50.8 533
12:31:49 28 1007 226 11 SW 0 50 530
12:34:50 29 1008 223 13 SO 0 50.3 527
12:37:48 29 1008 223 3 SO 0 49.9 524
12:40:50 29 1007 221 10 S 0 49.8 521
12:43:47 29 1006 224 8 S 0 50 519
12:46:49 28 1008 222 3 SO 0 49.3 518
12:49:50 28 1007 222 10 SO 0 48.4 521
12:52:49 28 1007 222 12 SO 0 50 514
12:55:47 28 1006 223 8 O 0 50.4 518
12:58:47 28 1007 223 2 O 0 50.1 524
13:01:48 29 1006 224 2 O 0 50.9 524
13:04:49 30 1006 224 5 SO 0 50.1 519
13:07:52 30 1007 224 5 SO 0 48.2 509
13:10:50 31 1006 225 6 SO 0 46.1 506
13:13:50 31 1006 225 8 SO 0 45.2 507
13:16:45 31 1007 225 2 0 45.2 515
13:19:48 30 1007 225 6 S 0 43.4 507
13:22:50 31 1007 225 10 SO 0 44.2 513
13:25:48 31 1006 225 7 SO 0 43.2 509
13:28:50 31 1006 226 4 O 0 43.3 504
13:31:48 30 1006 226 2 S 0 44 504
13:34:49 31 1006 227 3 S 0 45 503
13:37:51 31 1006 228 11 SO 0 43 509
13:40:50 31 1006 229 10 O 0 43.3 503
13:43:48 31 1006 230 3 SO 0 43 495
13:46:48 30 1006 231 9 O 0 43 492
13:49:48 30 1007 231 7 SO 0 44.4 495
13:52:48 30 1006 232 5 W 0 43.8 497
13:55:49 30 1006 233 13 S 0 44.2 497
13:58:46 30 1006 231 10 S 0 44.3 496
14:01:49 31 1006 233 5 S 0 43.4 495
14:04:50 31 1006 234 6 SO 0 43.3 492
14:07:47 31 1006 235 0 O 0 43.9 483
14:10:49 31 1006 236 4 SO 0 43.8 489
14:13:49 30 1006 237 3 O 0 42.8 489
14:16:46 30 1006 239 3 S 0 43.4 494
14:19:49 31 1006 239 13 S 0 44 490
14:22:50 31 1006 237 15 S 0 43.4 489
14:25:48 30 1006 240 4 SO 0 43.3 483
14:28:48 30 1006 241 5 SO 0 44.6 483
14:31:48 30 1006 241 4 SO 0 45 480
14:34:46 30 1006 241 9 O 0 43.9 483
14:37:48 30 1006 242 2 NO 0 42.7 477
14:40:48 31 1006 242 3 SO 0 42.6 474
14:43:47 31 1006 242 6 O 0 43.3 474
14:46:46 32 1006 242 7 O 0 41.5 469
14:49:47 32 1006 243 9 S 0 41.6 474
14:52:48 32 1006 243 8 S 0 40.5 474
14:55:49 32 1006 243 6 SO 0 39.3 474
14:58:49 32 1006 243 8 SO 0 39.3 471
15:01:50 32 1006 243 5 N 0 39.9 474
15:04:52 32 1006 244 19 SO 0 39.9 466
15:07:47 32 1006 244 17 SO 0 40.1 465
15:10:49 32 1006 244 13 SO 0 40.2 463
15:13:46 32 1006 244 6 S 0 38.6 460
15:16:48 32 1006 244 6 S 0 39.4 466
15:19:48 32 1006 243 1 O 0 39.6 459
15:22:48 31 1006 244 7 SO 0 39 466
15:25:48 32 1006 244 5 S 0 40.6 465
15:28:50 32 1006 245 9 SO 0 40.8 468
15:31:49 32 1006 245 7 SO 0 39.6 466
15:34:47 32 1006 245 7 O 0 38.8 462
15:37:46 32 1006 245 7 S 0 38.9 465
15:40:47 32 1006 245 20 S 0 39.4 419
15:43:50 32 1006 245 11 S 0 38.8 421
15:46:49 32 1006 245 5 SO 0 38.7 422
15:49:48 32 1006 245 5 S 0 39.3 425
15:52:49 32 1006 246 5 S 0 40.2 427
15:55:49 32 1006 246 7 SO 0 40.4 418
15:58:47 32 1006 246 7 S 0 39.8 424
16:01:49 32 1006 246 10 SO 0 38.3 418
16:04:47 32 1006 246 10 O 0 38.7 416
16:07:49 32 1006 246 10 S 0 38.6 407
16:10:47 32 1006 246 3 N 0 38.2 404
16:13:51 32 1006 241 1 NO 0 38.1 405
16:16:49 31 1006 246 3 NW 0 38.6 404
16:19:50 31 1006 246 10 SO 0 40.2 403
16:22:46 32 1006 246 9 O 0 40.5 409
16:25:50 32 1006 246 10 S 0 39.5 412
16:28:49 32 1006 246 14 SW 0 38.6 410
16:31:47 32 1006 246 9 S 0 37.6 404
16:34:47 32 1006 246 15 O 0 37.9 408
16:37:48 32 1006 246 4 SW 0 38.3 404
16:40:47 32 1006 247 2 O 0 39.1 407
16:43:49 32 1006 246 11 O 0 37.7 407
16:46:50 32 1006 247 2 NO 0 38.2 407
16:49:48 32 1006 246 8 S 0 38.7 407
16:52:50 32 1006 247 6 SO 0 38.9 407
16:55:50 32 1006 247 9 W 0 39.2 407
16:58:49 32 1006 247 4 O 0 38.9 406
17:01:49 31 1006 247 7 SW 0 38.5 404
17:04:49 31 1006 247 5 SO 0 39.3 407
17:07:49 32 1006 246 12 SO 0 39.5 404
17:10:47 32 1006 246 4 S 0 38.6 407
17:13:51 32 1006 247 11 S 0 39.1 403
17:16:46 32 1006 247 8 O 0 38.9 404
17:19:48 32 1005 247 9 S 0 38.3 407
17:22:49 32 1006 247 6 NO 0 38.5 407
17:25:50 33 1006 247 13 S 0 38 407
17:28:49 33 1006 246 13 SO 0 38.2 407
17:31:47 33 1006 247 12 S 0 37.3 407
17:34:49 33 1006 247 2 SO 0 35.9 406
17:37:49 33 1006 247 4 NO 0 35.4 403
17:40:50 33 1006 247 16 SO 0 36.3 404
17:43:49 33 1006 247 7 SO 0 35.9 403
17:46:46 33 1006 247 1 O 0 36.1 407
17:49:49 33 1006 247 5 SO 0 36.8 405
17:52:48 33 1006 246 6 S 0 37.1 404
17:55:50 33 1006 246 7 SO 0 36.8 404
17:58:48 33 1006 246 8 S 0 36.8 404
18:01:47 33 1006 246 9 S 0 36.9 406
18:04:49 32 1006 246 2 SW 0 37.4 407
18:07:48 32 1006 246 17 S 0 36.1 404
18:10:48 32 1006 246 11 SO 0 37.3 404
18:13:51 32 1006 246 6 O 0 37.1 407
18:16:51 31 1006 246 13 S 0 37.2 406
18:19:48 30 1006 244 11 SW 0 37.7 406
18:22:50 30 1006 229 18 SO 0 39.8 407
18:25:49 30 1006 230 4 SO 0 40.5 404
18:28:50 31 1006 245 13 SO 0 40.3 404
18:31:47 31 1006 245 4 O 0 39.3 407
18:34:50 31 1006 244 12 SO 0 38.8 407
18:37:49 31 1006 246 4 SO 0 38.7 403
18:40:46 31 1006 246 6 S 0 39 403
18:43:49 30 1006 246 12 SW 0 38.2 406
18:46:49 29 1006 233 17 S 0 41.9 403
18:49:47 28 1006 222 7 S 0 42.7 407
18:52:52 27 1006 220 12 S 0 47.4 406
18:55:47 27 1005 221 6 S 0 47.4 407
18:58:48 26 1006 217 13 S 0 48.1 403
19:01:50 26 1006 216 12 S 0 49.4 407
19:04:49 26 1006 216 9 O 0 49.9 405
19:07:48 25 1006 215 2 O 0 51 406
19:10:46 25 1006 214 6 O 0 51.8 407
19:13:48 25 1006 213 11 0 53 404
19:16:47 25 1006 213 11 S 0 53.8 404
19:19:50 25 1006 213 8 S 0 54.5 404
19:22:49 25 1006 211 8 SW 0 54.8 404
19:25:49 25 1006 210 5 S 0 54.4 406
19:28:50 25 1005 206 7 SO 0 54.7 407
19:31:52 24 1006 202 10 SO 0 55.9 404
19:34:48 24 1006 139 7 S 0 56.7 406
19:37:49 24 1006 137 8 SO 0 56.7 403
19:40:50 24 1006 132 7 SW 0 57.7 404
19:43:49 24 1006 127 7 SO 0 58.2 403
19:46:48 23 1006 188 2 O 0 58.7 408
19:49:49 23 1006 185 7 S 0 59.4 407
19:52:48 23 1006 183 6 S 0 60.4 408
19:55:50 23 1006 182 6 SO 0 60.5 407
19:58:52 23 1006 182 6 SW 0 60.5 406
20:01:48 23 1006 183 6 SO 0 60.8 407
20:04:50 23 1006 184 4 SO 0 61.1 404
20:07:49 23 1006 184 6 S 0 61.6 413
20:10:50 22 1006 182 3 SO 0 61.9 424
20:13:49 22 1006 179 0 NO 0 62.6 437
20:16:49 22 1006 175 4 S 0 62.8 448
20:19:48 22 1006 171 1 SO 0 63.3 468
20:22:50 22 1005 168 1 NW 0 63.5 470
20:25:48 22 1006 166 4 S 0 64.5 468
20:28:47 22 1006 164 0 O 0 64.5 475
20:31:48 22 1006 160 0 S 0 64.6 486
20:34:46 21 1006 155 1 S 0 65.4 495
20:37:52 21 1006 150 0 S 0 65.8 505
20:40:48 21 1006 146 3 SO 0 66 507
20:43:49 21 1006 141 2 O 0 66.1 515
20:46:49 21 1006 136 1 SO 0 67 527
20:49:49 21 1006 128 0 SO 0 67.1 533
20:52:50 21 1006 119 2 SO 0 67.3 536
20:55:48 21 1006 108 1 SO 0 67.6 545
20:58:47 21 1006 97 1 O 0 67.7 548
21:01:47 21 1006 86 0 SO 0 67.8 554
21:04:48 20 1006 74 1 S 0 68 571
21:07:48 20 1006 64 2 SO 0 68.2 585
21:10:50 20 1006 56 1 O 0 68.6 609
21:13:47 20 1005 49 0 O 0 68.9 621
21:16:47 20 1006 41 2 O 0 69.7 638
21:19:50 20 1006 34 0 SO 0 69.8 657
21:22:46 20 1006 27 1 O 0 70 673
21:25:47 20 1006 21 0 0 70.3 670
21:28:45 20 1006 16 1 S 0 70.4 623
21:31:49 20 1006 11 2 SO 0 70.2 558
21:34:46 19 1006 8 1 SO 0 70.1 559
21:37:49 19 1006 6 3 SO 0 70.5 586
21:40:46 19 1006 4 1 SO 0 70.6 620
21:43:45 19 1006 3 3 S 0 70.9 632
21:46:47 19 1006 0 7 S 0 71.1 631
21:49:44 19 1006 0 2 O 0 71.3 635
21:52:49 19 1006 0 1 S 0 71.4 640
21:55:46 19 1006 0 3 SO 0 71.7 644
21:58:46 19 1006 0 0 NO 0 71.8 651
22:01:47 19 1006 0 0 O 0 71.9 659
22:04:47 19 1006 0 4 SO 0 72 659
22:07:48 19 1006 0 0 SO 0 72.4 661
22:10:49 19 1006 0 0 S 0 72.5 662
22:13:48 19 1006 0 2 S 0 72.7 656
22:16:49 19 1006 0 3 O 0 72.8 665
22:19:48 19 1006 0 0 S 0 72.8 670
22:22:44 18 1006 0 1 O 0 73.1 673
22:25:46 18 1006 0 4 O 0 73.2 677
22:28:49 18 1006 0 0 SO 0 73.4 688
22:31:47 18 1006 0 3 S 0 73.5 688
22:34:48 18 1006 0 4 SO 0 73.6 697
22:37:48 18 1006 0 5 SO 0 74 712
22:40:48 18 1006 0 6 S 0 74.3 708
22:43:47 18 1006 0 2 S 0 74.4 696
22:46:45 18 1006 0 7 S 0 74.7 700
22:49:46 18 1006 0 4 S 0 75.3 717
22:52:47 18 1006 0 8 SO 0 74.8 720
22:55:47 18 1006 0 3 SO 0 74.9 685
22:58:46 18 1006 0 5 0 74.4 670
23:01:49 18 1005 0 3 NO 0 74.4 677
23:04:48 19 1006 0 14 S 0 74.5 703
23:07:48 19 1006 0 5 SW 0 74.4 703
23:10:48 18 1006 0 5 SO 0 74 697
23:13:48 18 1006 0 5 SO 0 74.1 697
23:16:46 18 1006 0 5 SO 0 74.2 694
23:19:48 18 1006 0 3 SO 0 74.3 697
23:22:48 18 1006 0 1 SO 0 74.5 710
23:25:47 18 1006 0 0 S 0 74.6 737
23:28:46 18 1006 0 1 O 0 74.9 756
23:31:48 18 1006 0 0 NW 0 75.7 756
23:34:46 18 1006 0 1 O 0 76.2 762
23:37:49 18 1005 0 0 SO 0 76.3 758
23:40:48 18 1006 0 1 SW 0 76.7 760
23:43:45 18 1006 0 0 O 0 77.1 750
23:46:46 18 1006 0 0 N 0 77.2 753
23:49:47 17 1006 0 2 SO 0 77.4 744
23:52:46 17 1006 0 0 O 0 77.4 738
23:55:48 17 1006 0 1 SO 0 77.8 729
23:58:49 17 1005 0 4 SO 0 78.2 720

Letzte Änderung : 04-Jan-2022
Copyright Jens Köhler, Wolfsburg, Obere Dorfstraße 10d